Location: ???? ??
(36.0534°N, 43.5630°E)
Time: 18:32:00
(UTC+00:00)

GP-B - Pass Details

Date: 18 September 2019
Orbit: 631 x 635 km, 89.8° (Epoch: 22 October)

Event Time Altitude Azimuth Distance (km) Brightness Sun altitude
Rises 15:54:08 0° 6° (N) 2,934 6.6 -9.8°
Reaches altitude 10° 15:56:23 10° 10° (N) 2,021 5.7 -10.3°
Maximum altitude 16:00:47 60° 91° (E) 727 3.1 -11.2°
Drops below altitude 10° 16:05:08 10° 171° (S) 2,005 5.5 -12.0°
Sets 16:07:22 0° 175° (S) 2,908 6.3 -12.5°
